Location: Unspecified
(43.4354°N, 0.0000°E)
Time: 14:20:30
(UTC+00:00)

Vanguard 2 Rocket - Pass Details

Date: 26 June 2019
Orbit: 554 x 3326 km, 32.9° (Epoch: 22 July)

Event Time Altitude Azimuth Distance (km) Brightness Sun altitude
Rises 04:36:17 0° 265° (W) 6,366 10.6 1.6°
Reaches altitude 10° 04:45:42 10° 237° (WSW) 5,935 10.4 3.0°
Maximum altitude 04:50:06 11° 223° (SW) 6,002 10.5 3.7°
Drops below altitude 10° 04:54:44 10° 209° (SSW) 6,229 10.7 4.5°
Sets 05:05:58 0° 182° (S) 7,246 11.2 6.3°
